Weather in Azadogly

Russia / Republic of Dagestan     41°49′45″N   48°26′46″E
temp.,
°C
wind,
m/s
gust,
m/s
humid.,
%
clouds,
%
prec.,
mm/h
press.,
hPa
HPBL,
m
15 may, sat
sat1500:00+18ssw22605 0.0 101415
03:00+16ssw22620 0.0 101313
06:00+19ssw23600 0.0 101345
09:00+26ese45400 0.0 1013494
12:00+28ese68330 0.0 1013846
15:00+27se611320 0.0 1012752
18:00+22se48440 0.0 1013210
21:00+17sw11531 0.0 101313
16 may, sun
sun1600:00+17wsw11602 0.0 101311
03:00+16ssw22650 0.0 101212
06:00+19s23620 0.0 101258
09:00+27se59260 0.0 1011656
12:00+30se1012230 0.0 10091461
15:00+28ese1016310 0.0 1007871
18:00+22se819390 0.0 1007441
21:00+19s35440 0.0 100866
17 may, mon
mon1700:00+18ssw22300 0.0 100718
03:00+16ssw22331 0.0 100713
06:00+19sw11469 0.0 100731
09:00+25ene2133100 0.0 1007391
12:00+29ne32317 0.0 1005598
15:00+28nne32380 0.0 1004379
18:00+21nw23622 0.0 100587
21:00+17wnw1167100 0.0 100511
18 may, tue
tue1800:00+18nnw116080 0.0 100511
03:00+17wsw336080 0.0 100524
06:00+19nw196460 0.0 1008318
09:00+21n576794 0.0 1010606
12:00+22n7966100 0.0 1012767
15:00+22nnw9136598 0.3 1011970
18:00+18sw2291100 1.3 101374
21:00+18w5885100 1.8 1013130
19 may, wed
wed1900:00+18sw3479100 0.1 101354
03:00+18wsw458084 0.5 101568
06:00+20wsw347352 0.0 1016102
09:00+24n45561 0.0 1017838
12:00+24n55530 0.0 1017850
15:00+24n44480 0.0 1017659
18:00+22nne11610 0.0 101746
21:00+17sw227057 0.0 101711